Year,Month,Day,Hour,Minute,Value (Times are PST for barometer in hPa)
2017,04,06,00,00,1009.65
2017,04,06,00,01,1009.59
2017,04,06,00,02,1009.58
2017,04,06,00,03,1009.62
2017,04,06,00,04,1009.62
2017,04,06,00,05,1009.58
2017,04,06,00,06,1009.58
2017,04,06,00,07,1009.58
2017,04,06,00,08,1009.52
2017,04,06,00,09,1009.48
2017,04,06,00,10,1009.42
2017,04,06,00,11,1009.45
2017,04,06,00,12,1009.42
2017,04,06,00,13,1009.45
2017,04,06,00,14,1009.48
2017,04,06,00,15,1009.45
2017,04,06,00,16,1009.52
2017,04,06,00,17,1009.45
2017,04,06,00,18,1009.42
2017,04,06,00,19,1009.38
2017,04,06,00,20,1009.38
2017,04,06,00,21,1009.35
2017,04,06,00,22,1009.31
2017,04,06,00,23,1009.28
2017,04,06,00,24,1009.28
2017,04,06,00,25,1009.28
2017,04,06,00,26,1009.28
2017,04,06,00,27,1009.28
2017,04,06,00,28,1009.25
2017,04,06,00,29,1009.21
2017,04,06,00,30,1009.25
2017,04,06,00,31,1009.21
2017,04,06,00,32,1009.21
2017,04,06,00,33,1009.18
2017,04,06,00,34,1009.18
2017,04,06,00,35,1009.11
2017,04,06,00,36,1009.18
2017,04,06,00,37,1009.14
2017,04,06,00,38,1009.08
2017,04,06,00,39,1009.08
2017,04,06,00,40,1009.08
2017,04,06,00,41,1009.04
2017,04,06,00,42,1009.01
2017,04,06,00,43,1009.01
2017,04,06,00,44,1009.01
2017,04,06,00,45,1009.01
2017,04,06,00,46,1008.94
2017,04,06,00,47,1008.94
2017,04,06,00,48,1008.94
2017,04,06,00,49,1008.94
2017,04,06,00,50,1008.87
2017,04,06,00,51,1008.81
2017,04,06,00,52,1008.81
2017,04,06,00,53,1008.77
2017,04,06,00,54,1008.74
2017,04,06,00,55,1008.70
2017,04,06,00,56,1008.70
2017,04,06,00,57,1008.70
2017,04,06,00,58,1008.74
2017,04,06,00,59,1008.70
2017,04,06,01,00,1008.67
2017,04,06,01,01,1008.67
2017,04,06,01,02,1008.64
2017,04,06,01,03,1008.64
2017,04,06,01,04,1008.64
2017,04,06,01,05,1008.57
2017,04,06,01,06,1008.57
2017,04,06,01,07,1008.53
2017,04,06,01,08,1008.53
2017,04,06,01,09,1008.50
2017,04,06,01,10,1008.47
2017,04,06,01,11,1008.40
2017,04,06,01,12,1008.40
2017,04,06,01,13,1008.37
2017,04,06,01,14,1008.37
2017,04,06,01,15,1008.37
2017,04,06,01,16,1008.37
2017,04,06,01,17,1008.37
2017,04,06,01,18,1008.30
2017,04,06,01,19,1008.30
2017,04,06,01,20,1008.26
2017,04,06,01,21,1008.23
2017,04,06,01,22,1008.23
2017,04,06,01,23,1008.23
2017,04,06,01,24,1008.20
2017,04,06,01,25,1008.26
2017,04,06,01,26,1008.20
2017,04,06,01,27,1008.23
2017,04,06,01,28,1008.16
2017,04,06,01,29,1008.16
2017,04,06,01,30,1008.13
2017,04,06,01,31,1008.16
2017,04,06,01,32,1008.09
2017,04,06,01,33,1008.09
2017,04,06,01,34,1008.03
2017,04,06,01,35,1008.03
2017,04,06,01,36,1008.03
2017,04,06,01,37,1008.03
2017,04,06,01,38,1007.99
2017,04,06,01,39,1007.96
2017,04,06,01,40,1007.96
2017,04,06,01,41,1007.93
2017,04,06,01,42,1007.89
2017,04,06,01,43,1007.89
2017,04,06,01,44,1007.86
2017,04,06,01,45,1007.79
2017,04,06,01,46,1007.72
2017,04,06,01,47,1007.72
2017,04,06,01,48,1007.65
2017,04,06,01,49,1007.62
2017,04,06,01,50,1007.59
2017,04,06,01,51,1007.59
2017,04,06,01,52,1007.62
2017,04,06,01,53,1007.59
2017,04,06,01,54,1007.55
2017,04,06,01,55,1007.52
2017,04,06,01,56,1007.48
2017,04,06,01,57,1007.45
2017,04,06,01,58,1007.38
2017,04,06,01,59,1007.35
2017,04,06,02,00,1007.35
2017,04,06,02,01,1007.35
2017,04,06,02,02,1007.32
2017,04,06,02,03,1007.28
2017,04,06,02,04,1007.28
2017,04,06,02,05,1007.25
2017,04,06,02,06,1007.21
2017,04,06,02,07,1007.21
2017,04,06,02,08,1007.18
2017,04,06,02,09,1007.18
2017,04,06,02,10,1007.15
2017,04,06,02,11,1007.15
2017,04,06,02,12,1007.11
2017,04,06,02,13,1007.08
2017,04,06,02,14,1007.08
2017,04,06,02,15,1007.08
2017,04,06,02,16,1007.08
2017,04,06,02,17,1007.08
2017,04,06,02,18,1007.04
2017,04,06,02,19,1007.01
2017,04,06,02,20,1007.01
2017,04,06,02,21,1006.98
2017,04,06,02,22,1006.94
2017,04,06,02,23,1006.94
2017,04,06,02,24,1006.91
2017,04,06,02,25,1006.88
2017,04,06,02,26,1006.84
2017,04,06,02,27,1006.81
2017,04,06,02,28,1006.81
2017,04,06,02,29,1006.74
2017,04,06,02,30,1006.71
2017,04,06,02,31,1006.71
2017,04,06,02,32,1006.67
2017,04,06,02,33,1006.64
2017,04,06,02,34,1006.60
2017,04,06,02,35,1006.67
2017,04,06,02,36,1006.64
2017,04,06,02,37,1006.64
2017,04,06,02,38,1006.60
2017,04,06,02,39,1006.57
2017,04,06,02,40,1006.60
2017,04,06,02,41,1006.57
2017,04,06,02,42,1006.60
2017,04,06,02,43,1006.50
2017,04,06,02,44,1006.54
2017,04,06,02,45,1006.47
2017,04,06,02,46,1006.44
2017,04,06,02,47,1006.44
2017,04,06,02,48,1006.40
2017,04,06,02,49,1006.40
2017,04,06,02,50,1006.37
2017,04,06,02,51,1006.33
2017,04,06,02,52,1006.33
2017,04,06,02,53,1006.30
2017,04,06,02,54,1006.27
2017,04,06,02,55,1006.27
2017,04,06,02,56,1006.23
2017,04,06,02,57,1006.23
2017,04,06,02,58,1006.23
2017,04,06,02,59,1006.23
2017,04,06,03,00,1006.20
2017,04,06,03,01,1006.20
2017,04,06,03,02,1006.13
2017,04,06,03,03,1006.10
2017,04,06,03,04,1006.10
2017,04,06,03,05,1006.10
2017,04,06,03,06,1006.06
2017,04,06,03,07,1006.03
2017,04,06,03,08,1006.03
2017,04,06,03,09,1005.99
2017,04,06,03,10,1005.99
2017,04,06,03,11,1005.99
2017,04,06,03,12,1005.96
2017,04,06,03,13,1005.99
2017,04,06,03,14,1005.96
2017,04,06,03,15,1005.96
2017,04,06,03,16,1005.93
2017,04,06,03,17,1005.89
2017,04,06,03,18,1005.96
2017,04,06,03,19,1005.93
2017,04,06,03,20,1005.96
2017,04,06,03,21,1005.86
2017,04,06,03,22,1005.86
2017,04,06,03,23,1005.83
2017,04,06,03,24,1005.83
2017,04,06,03,25,1005.83
2017,04,06,03,26,1005.83
2017,04,06,03,27,1005.83
2017,04,06,03,28,1005.79
2017,04,06,03,29,1005.79
2017,04,06,03,30,1005.72
2017,04,06,03,31,1005.76
2017,04,06,03,32,1005.76
2017,04,06,03,33,1005.76
2017,04,06,03,34,1005.72
2017,04,06,03,35,1005.76
2017,04,06,03,36,1005.69
2017,04,06,03,37,1005.66
2017,04,06,03,38,1005.72
2017,04,06,03,39,1005.72
2017,04,06,03,40,1005.66
2017,04,06,03,41,1005.66
2017,04,06,03,42,1005.62
2017,04,06,03,43,1005.66
2017,04,06,03,44,1005.66
2017,04,06,03,45,1005.66
2017,04,06,03,46,1005.62
2017,04,06,03,47,1005.66
2017,04,06,03,48,1005.62
2017,04,06,03,49,1005.62
2017,04,06,03,50,1005.62
2017,04,06,03,51,1005.62
2017,04,06,03,52,1005.62
2017,04,06,03,53,1005.59
2017,04,06,03,54,1005.59
2017,04,06,03,55,1005.59
2017,04,06,03,56,1005.52
2017,04,06,03,57,1005.52
2017,04,06,03,58,1005.55
2017,04,06,03,59,1005.55
2017,04,06,04,00,1005.55
2017,04,06,04,01,1005.52
2017,04,06,04,02,1005.49
2017,04,06,04,03,1005.45
2017,04,06,04,04,1005.42
2017,04,06,04,05,1005.39
2017,04,06,04,06,1005.39
2017,04,06,04,07,1005.32
2017,04,06,04,08,1005.32
2017,04,06,04,09,1005.32
2017,04,06,04,10,1005.32
2017,04,06,04,11,1005.32
2017,04,06,04,12,1005.28
2017,04,06,04,13,1005.28
2017,04,06,04,14,1005.28
2017,04,06,04,15,1005.25
2017,04,06,04,16,1005.25
2017,04,06,04,17,1005.25
2017,04,06,04,18,1005.22
2017,04,06,04,19,1005.28
2017,04,06,04,20,1005.25
2017,04,06,04,21,1005.25
2017,04,06,04,22,1005.22
2017,04,06,04,23,1005.18
2017,04,06,04,24,1005.18
2017,04,06,04,25,1005.18
2017,04,06,04,26,1005.15
2017,04,06,04,27,1005.08
2017,04,06,04,28,1005.08
2017,04,06,04,29,1005.08
2017,04,06,04,30,1005.15
2017,04,06,04,31,1005.11
2017,04,06,04,32,1005.08
2017,04,06,04,33,1005.05
2017,04,06,04,34,1004.98
2017,04,06,04,35,1005.01
2017,04,06,04,36,1005.01
2017,04,06,04,37,1005.01
2017,04,06,04,38,1004.98
2017,04,06,04,39,1004.98
2017,04,06,04,40,1004.91
2017,04,06,04,41,1004.91
2017,04,06,04,42,1004.91
2017,04,06,04,43,1004.91
2017,04,06,04,44,1004.91
2017,04,06,04,45,1004.88
2017,04,06,04,46,1004.88
2017,04,06,04,47,1004.88
2017,04,06,04,48,1004.84
2017,04,06,04,49,1004.81
2017,04,06,04,50,1004.81
2017,04,06,04,51,1004.81
2017,04,06,04,52,1004.81
2017,04,06,04,53,1004.81
2017,04,06,04,54,1004.81
2017,04,06,04,55,1004.78
2017,04,06,04,56,1004.78
2017,04,06,04,57,1004.74
2017,04,06,04,58,1004.74
2017,04,06,04,59,1004.78
2017,04,06,05,00,1004.74
2017,04,06,05,01,1004.64
2017,04,06,05,02,1004.67
2017,04,06,05,03,1004.71
2017,04,06,05,04,1004.74
2017,04,06,05,05,1004.78
2017,04,06,05,06,1004.74
2017,04,06,05,07,1004.74
2017,04,06,05,08,1004.71
2017,04,06,05,09,1004.74
2017,04,06,05,10,1004.71
2017,04,06,05,11,1004.71
2017,04,06,05,12,1004.67
2017,04,06,05,13,1004.71
2017,04,06,05,14,1004.67
2017,04,06,05,15,1004.67
2017,04,06,05,16,1004.61
2017,04,06,05,17,1004.64
2017,04,06,05,18,1004.57
2017,04,06,05,19,1004.54
2017,04,06,05,20,1004.57
2017,04,06,05,21,1004.61
2017,04,06,05,22,1004.54
2017,04,06,05,23,1004.54
2017,04,06,05,24,1004.50
2017,04,06,05,25,1004.54
2017,04,06,05,26,1004.50
2017,04,06,05,27,1004.50
2017,04,06,05,28,1004.50
2017,04,06,05,29,1004.47
2017,04,06,05,30,1004.47
2017,04,06,05,31,1004.44
2017,04,06,05,32,1004.40
2017,04,06,05,33,1004.40
2017,04,06,05,34,1004.34
2017,04,06,05,35,1004.37
2017,04,06,05,36,1004.34
2017,04,06,05,37,1004.34
2017,04,06,05,38,1004.34
2017,04,06,05,39,1004.37
2017,04,06,05,40,1004.34
2017,04,06,05,41,1004.34
2017,04,06,05,42,1004.34
2017,04,06,05,43,1004.30
2017,04,06,05,44,1004.30
2017,04,06,05,45,1004.27
2017,04,06,05,46,1004.27
2017,04,06,05,47,1004.23
2017,04,06,05,48,1004.23
2017,04,06,05,49,1004.20
2017,04,06,05,50,1004.17
2017,04,06,05,51,1004.20
2017,04,06,05,52,1004.20
2017,04,06,05,53,1004.17
2017,04,06,05,54,1004.13
2017,04,06,05,55,1004.10
2017,04,06,05,56,1004.13
2017,04,06,05,57,1004.06
2017,04,06,05,58,1004.06
2017,04,06,05,59,1004.03
2017,04,06,06,00,1004.06
2017,04,06,06,01,1004.03
2017,04,06,06,02,1004.00
2017,04,06,06,03,1003.93
2017,04,06,06,04,1003.96
2017,04,06,06,05,1003.96
2017,04,06,06,06,1003.96
2017,04,06,06,07,1003.96
2017,04,06,06,08,1003.93
2017,04,06,06,09,1003.86
2017,04,06,06,10,1003.86
2017,04,06,06,11,1003.86
2017,04,06,06,12,1003.86
2017,04,06,06,13,1003.86
2017,04,06,06,14,1003.86
2017,04,06,06,15,1003.86
2017,04,06,06,16,1003.86
2017,04,06,06,17,1003.83
2017,04,06,06,18,1003.79
2017,04,06,06,19,1003.83
2017,04,06,06,20,1003.73
2017,04,06,06,21,1003.69
2017,04,06,06,22,1003.69
2017,04,06,06,23,1003.62
2017,04,06,06,24,1003.66
2017,04,06,06,25,1003.73
2017,04,06,06,26,1003.69
2017,04,06,06,27,1003.69
2017,04,06,06,28,1003.69
2017,04,06,06,29,1003.69
2017,04,06,06,30,1003.66
2017,04,06,06,31,1003.62
2017,04,06,06,32,1003.62
2017,04,06,06,33,1003.62
2017,04,06,06,34,1003.56
2017,04,06,06,35,1003.62
2017,04,06,06,36,1003.56
2017,04,06,06,37,1003.59
2017,04,06,06,38,1003.49
2017,04,06,06,39,1003.49
2017,04,06,06,40,1003.46
2017,04,06,06,41,1003.46
2017,04,06,06,42,1003.42
2017,04,06,06,43,1003.46
2017,04,06,06,44,1003.46
2017,04,06,06,45,1003.39
2017,04,06,06,46,1003.39
2017,04,06,06,47,1003.39
2017,04,06,06,48,1003.39
2017,04,06,06,49,1003.39
2017,04,06,06,50,1003.35
2017,04,06,06,51,1003.32
2017,04,06,06,52,1003.29
2017,04,06,06,53,1003.35
2017,04,06,06,54,1003.35
2017,04,06,06,55,1003.29
2017,04,06,06,56,1003.25
2017,04,06,06,57,1003.18
2017,04,06,06,58,1003.15
2017,04,06,06,59,1003.15
2017,04,06,07,00,1003.15
2017,04,06,07,01,1003.15
2017,04,06,07,02,1003.15
2017,04,06,07,03,1003.15
2017,04,06,07,04,1003.12
2017,04,06,07,05,1003.05
2017,04,06,07,06,1003.05
2017,04,06,07,07,1003.01
2017,04,06,07,08,1003.01
2017,04,06,07,09,1002.95
2017,04,06,07,10,1002.95
2017,04,06,07,11,1002.91
2017,04,06,07,12,1002.91
2017,04,06,07,13,1002.95
2017,04,06,07,14,1002.91
2017,04,06,07,15,1002.88
2017,04,06,07,16,1002.91
2017,04,06,07,17,1002.85
2017,04,06,07,18,1002.74
2017,04,06,07,19,1002.81
2017,04,06,07,20,1002.88
2017,04,06,07,21,1002.81
2017,04,06,07,22,1002.78
2017,04,06,07,23,1002.74
2017,04,06,07,24,1002.74
2017,04,06,07,25,1002.78
2017,04,06,07,26,1002.71
2017,04,06,07,27,1002.71
2017,04,06,07,28,1002.71
2017,04,06,07,29,1002.78
2017,04,06,07,30,1002.74
2017,04,06,07,31,1002.74
2017,04,06,07,32,1002.74
2017,04,06,07,33,1002.74
2017,04,06,07,34,1002.74
2017,04,06,07,35,1002.74
2017,04,06,07,36,1002.71
2017,04,06,07,37,1002.68
2017,04,06,07,38,1002.68
2017,04,06,07,39,1002.61
2017,04,06,07,40,1002.61
2017,04,06,07,41,1002.61
2017,04,06,07,42,1002.64
2017,04,06,07,43,1002.54
2017,04,06,07,44,1002.54
2017,04,06,07,45,1002.61
2017,04,06,07,46,1002.51
2017,04,06,07,47,1002.57
2017,04,06,07,48,1002.57
2017,04,06,07,49,1002.51
2017,04,06,07,50,1002.51
2017,04,06,07,51,1002.44
2017,04,06,07,52,1002.47
2017,04,06,07,53,1002.47
2017,04,06,07,54,1002.51
2017,04,06,07,55,1002.47
2017,04,06,07,56,1002.44
2017,04,06,07,57,1002.44
2017,04,06,07,58,1002.34
2017,04,06,07,59,1002.34
2017,04,06,08,00,1002.30
2017,04,06,08,01,1002.34
2017,04,06,08,02,1002.30
2017,04,06,08,03,1002.27
2017,04,06,08,04,1002.24
2017,04,06,08,05,1002.20
2017,04,06,08,06,1002.27
2017,04,06,08,07,1002.20
2017,04,06,08,08,1002.17
2017,04,06,08,09,1002.20
2017,04,06,08,10,1002.30
2017,04,06,08,11,1002.24
2017,04,06,08,12,1002.20
2017,04,06,08,13,1002.13
2017,04,06,08,14,1002.20
2017,04,06,08,15,1002.13
2017,04,06,08,16,1002.10
2017,04,06,08,17,1002.07
2017,04,06,08,18,1002.07
2017,04,06,08,19,1002.03
2017,04,06,08,20,1002.00
2017,04,06,08,21,1002.00
2017,04,06,08,22,1001.93
2017,04,06,08,23,1001.97
2017,04,06,08,24,1001.93
2017,04,06,08,25,1001.90
2017,04,06,08,26,1001.93
2017,04,06,08,27,1001.97
2017,04,06,08,28,1001.90
2017,04,06,08,29,1001.90
2017,04,06,08,30,1001.90
2017,04,06,08,31,1001.90
2017,04,06,08,32,1001.86
2017,04,06,08,33,1001.83
2017,04,06,08,34,1001.90
2017,04,06,08,35,1001.83
2017,04,06,08,36,1001.80
2017,04,06,08,37,1001.83
2017,04,06,08,38,1001.86
2017,04,06,08,39,1001.80
2017,04,06,08,40,1001.73
2017,04,06,08,41,1001.73
2017,04,06,08,42,1001.69
2017,04,06,08,43,1001.73
2017,04,06,08,44,1001.66
2017,04,06,08,45,1001.63
2017,04,06,08,46,1001.66
2017,04,06,08,47,1001.66
2017,04,06,08,48,1001.63
2017,04,06,08,49,1001.66
2017,04,06,08,50,1001.59
2017,04,06,08,51,1001.52
2017,04,06,08,52,1001.56
2017,04,06,08,53,1001.52
2017,04,06,08,54,1001.46
2017,04,06,08,55,1001.52
2017,04,06,08,56,1001.59
2017,04,06,08,57,1001.52
2017,04,06,08,58,1001.46
2017,04,06,08,59,1001.52
2017,04,06,09,00,1001.42
2017,04,06,09,01,1001.39
2017,04,06,09,02,1001.36
2017,04,06,09,03,1001.39
2017,04,06,09,04,1001.39
2017,04,06,09,05,1001.39
2017,04,06,09,06,1001.32
2017,04,06,09,07,1001.32
2017,04,06,09,08,1001.42
2017,04,06,09,09,1001.42
2017,04,06,09,10,1001.39
2017,04,06,09,11,1001.39
2017,04,06,09,12,1001.39
2017,04,06,09,13,1001.42
2017,04,06,09,14,1001.42
2017,04,06,09,15,1001.42
2017,04,06,09,16,1001.39
2017,04,06,09,17,1001.36
2017,04,06,09,18,1001.36
2017,04,06,09,19,1001.39
2017,04,06,09,20,1001.36
2017,04,06,09,21,1001.32
2017,04,06,09,22,1001.36
2017,04,06,09,23,1001.39
2017,04,06,09,24,1001.36
2017,04,06,09,25,1001.39
2017,04,06,09,26,1001.32
2017,04,06,09,27,1001.32
2017,04,06,09,28,1001.32
2017,04,06,09,29,1001.29
2017,04,06,09,30,1001.29
2017,04,06,09,31,1001.29
2017,04,06,09,32,1001.29
2017,04,06,09,33,1001.36
2017,04,06,09,34,1001.32
2017,04,06,09,35,1001.29
2017,04,06,09,36,1001.25
2017,04,06,09,37,1001.29
2017,04,06,09,38,1001.29
2017,04,06,09,39,1001.25
2017,04,06,09,40,1001.25
2017,04,06,09,41,1001.25
2017,04,06,09,42,1001.25
2017,04,06,09,43,1001.22
2017,04,06,09,44,1001.22
2017,04,06,09,45,1001.29
2017,04,06,09,46,1001.29
2017,04,06,09,47,1001.22
2017,04,06,09,48,1001.12
2017,04,06,09,49,1001.08
2017,04,06,09,50,1001.08
2017,04,06,09,51,1001.08
2017,04,06,09,52,1001.08
2017,04,06,09,53,1001.12
2017,04,06,09,54,1001.05
2017,04,06,09,55,1000.98
2017,04,06,09,56,1000.88
2017,04,06,09,57,1000.88
2017,04,06,09,58,1000.98
2017,04,06,09,59,1000.98
2017,04,06,10,00,1000.95
2017,04,06,10,01,1000.95
2017,04,06,10,02,1000.88
2017,04,06,10,03,1000.92
2017,04,06,10,04,1000.95
2017,04,06,10,05,1000.95
2017,04,06,10,06,1000.95
2017,04,06,10,07,1000.95
2017,04,06,10,08,1000.95
2017,04,06,10,09,1000.92
2017,04,06,10,10,1000.85
2017,04,06,10,11,1000.75
2017,04,06,10,12,1000.68
2017,04,06,10,13,1000.71
2017,04,06,10,14,1000.81
2017,04,06,10,15,1000.81
2017,04,06,10,16,1000.81
2017,04,06,10,17,1000.81
2017,04,06,10,18,1000.78
2017,04,06,10,19,1000.75
2017,04,06,10,20,1000.64
2017,04,06,10,21,1000.71
2017,04,06,10,22,1000.68
2017,04,06,10,23,1000.68
2017,04,06,10,24,1000.68
2017,04,06,10,25,1000.64
2017,04,06,10,26,1000.54
2017,04,06,10,27,1000.54
2017,04,06,10,28,1000.58
2017,04,06,10,29,1000.54
2017,04,06,10,30,1000.58
2017,04,06,10,31,1000.61
2017,04,06,10,32,1000.54
2017,04,06,10,33,1000.48
2017,04,06,10,34,1000.44
2017,04,06,10,35,1000.44
2017,04,06,10,36,1000.48
2017,04,06,10,37,1000.44
2017,04,06,10,38,1000.54
2017,04,06,10,39,1000.61
2017,04,06,10,40,1000.48
2017,04,06,10,41,1000.51
2017,04,06,10,42,1000.51
2017,04,06,10,43,1000.48
2017,04,06,10,44,1000.41
2017,04,06,10,45,1000.44
2017,04,06,10,46,1000.48
2017,04,06,10,47,1000.44
2017,04,06,10,48,1000.37
2017,04,06,10,49,1000.37
2017,04,06,10,50,1000.34
2017,04,06,10,51,1000.31
2017,04,06,10,52,1000.20
2017,04,06,10,53,1000.31
2017,04,06,10,54,1000.31
2017,04,06,10,55,1000.37
2017,04,06,10,56,1000.41
2017,04,06,10,57,1000.31
2017,04,06,10,58,1000.27
2017,04,06,10,59,1000.27
2017,04,06,11,00,1000.31
2017,04,06,11,01,1000.17
2017,04,06,11,02,1000.17
2017,04,06,11,03,1000.17
2017,04,06,11,04,1000.20
2017,04,06,11,05,1000.20
2017,04,06,11,06,1000.17
2017,04,06,11,07,1000.17
2017,04,06,11,08,1000.20
2017,04,06,11,09,1000.20
2017,04,06,11,10,1000.20
2017,04,06,11,11,1000.20
2017,04,06,11,12,1000.04
2017,04,06,11,13,1000.03
2017,04,06,11,14,1000.03
2017,04,06,11,15,1000.00
2017,04,06,11,16,1000.03
2017,04,06,11,17,1000.07
2017,04,06,11,18,1000.10
2017,04,06,11,19,1000.17
2017,04,06,11,20,1000.10
2017,04,06,11,21,1000.03
2017,04,06,11,22,999.93
2017,04,06,11,23,1000.03
2017,04,06,11,24,1000.03
2017,04,06,11,25,1000.03
2017,04,06,11,26,1000.03
2017,04,06,11,27,1000.07
2017,04,06,11,28,1000.07
2017,04,06,11,29,1000.00
2017,04,06,11,30,1000.03
2017,04,06,11,31,1000.03
2017,04,06,11,32,1000.00
2017,04,06,11,33,999.97
2017,04,06,11,34,999.87
2017,04,06,11,35,999.93
2017,04,06,11,36,999.90
2017,04,06,11,37,999.87
2017,04,06,11,38,999.80
2017,04,06,11,39,999.70
2017,04,06,11,40,999.73
2017,04,06,11,41,999.80
2017,04,06,11,42,999.76
2017,04,06,11,43,999.76
2017,04,06,11,44,999.80
2017,04,06,11,45,999.73
2017,04,06,11,46,999.73
2017,04,06,11,47,999.76
2017,04,06,11,48,999.83
2017,04,06,11,49,999.87
2017,04,06,11,50,999.90
2017,04,06,11,51,999.83
2017,04,06,11,52,999.80
2017,04,06,11,53,999.83
2017,04,06,11,54,999.87
2017,04,06,11,55,999.87
2017,04,06,11,56,999.76
2017,04,06,11,57,999.60
2017,04,06,11,58,999.56
2017,04,06,11,59,999.73
2017,04,06,12,00,999.76
2017,04,06,12,01,999.76
2017,04,06,12,02,999.73
2017,04,06,12,03,999.63
2017,04,06,12,04,999.59
2017,04,06,12,05,999.66
2017,04,06,12,06,999.70
2017,04,06,12,07,999.63
2017,04,06,12,08,999.53
2017,04,06,12,09,999.59
2017,04,06,12,10,999.56
2017,04,06,12,11,999.46
2017,04,06,12,12,999.53
2017,04,06,12,13,999.56
2017,04,06,12,14,999.70
2017,04,06,12,15,999.66
2017,04,06,12,16,999.66
2017,04,06,12,17,999.63
2017,04,06,12,18,999.63
2017,04,06,12,19,999.73
2017,04,06,12,20,999.73
2017,04,06,12,21,999.53
2017,04,06,12,22,999.56
2017,04,06,12,23,999.59
2017,04,06,12,24,999.53
2017,04,06,12,25,999.49
2017,04,06,12,26,999.56
2017,04,06,12,27,999.66
2017,04,06,12,28,999.66
2017,04,06,12,29,999.66
2017,04,06,12,30,999.70
2017,04,06,12,31,999.66
2017,04,06,12,32,999.66
2017,04,06,12,33,999.59
2017,04,06,12,34,999.59
2017,04,06,12,35,999.63
2017,04,06,12,36,999.73
2017,04,06,12,37,999.66
2017,04,06,12,38,999.56
2017,04,06,12,39,999.59
2017,04,06,12,40,999.56
2017,04,06,12,41,999.63
2017,04,06,12,42,999.70
2017,04,06,12,43,999.59
2017,04,06,12,44,999.63
2017,04,06,12,45,999.49
2017,04,06,12,46,999.62
2017,04,06,12,47,999.76
2017,04,06,12,48,999.66
2017,04,06,12,49,999.63
2017,04,06,12,50,999.70
2017,04,06,12,51,999.80
2017,04,06,12,52,999.80
2017,04,06,12,53,999.87
2017,04,06,12,54,999.73
2017,04,06,12,55,999.80
2017,04,06,12,56,999.80
2017,04,06,12,57,999.73
2017,04,06,12,58,999.80
2017,04,06,12,59,999.87
2017,04,06,13,00,999.83
2017,04,06,13,01,999.87
2017,04,06,13,02,999.97
2017,04,06,13,03,999.90
2017,04,06,13,04,1000.03
2017,04,06,13,05,1000.00
2017,04,06,13,06,1000.00
2017,04,06,13,07,1000.00
2017,04,06,13,08,1000.03
2017,04,06,13,09,1000.03
2017,04,06,13,10,1000.20
2017,04,06,13,11,1000.14
2017,04,06,13,12,1000.20
2017,04,06,13,13,1000.20
2017,04,06,13,14,1000.10
2017,04,06,13,15,1000.14
2017,04,06,13,16,1000.24
2017,04,06,13,17,1000.27
2017,04,06,13,18,1000.37
2017,04,06,13,19,1000.41
2017,04,06,13,20,1000.61
2017,04,06,13,21,1000.68
2017,04,06,13,22,1000.58
2017,04,06,13,23,1000.61
2017,04,06,13,24,1000.64
2017,04,06,13,25,1000.64
2017,04,06,13,26,1000.58
2017,04,06,13,27,1000.61
2017,04,06,13,28,1000.68
2017,04,06,13,29,1000.71
2017,04,06,13,30,1000.68
2017,04,06,13,31,1000.78
2017,04,06,13,32,1000.71
2017,04,06,13,33,1000.68
2017,04,06,13,34,1000.75
2017,04,06,13,35,1000.71
2017,04,06,13,36,1000.78
2017,04,06,13,37,1000.78
2017,04,06,13,38,1000.88
2017,04,06,13,39,1000.81
2017,04,06,13,40,1000.85
2017,04,06,13,41,1000.81
2017,04,06,13,42,1000.88
2017,04,06,13,43,1000.92
2017,04,06,13,44,1000.88
2017,04,06,13,45,1000.92
2017,04,06,13,46,1000.92
2017,04,06,13,47,1000.98
2017,04,06,13,48,1001.05
2017,04,06,13,49,1001.05
2017,04,06,13,50,1001.08
2017,04,06,13,51,1001.12
2017,04,06,13,52,1001.12
2017,04,06,13,53,1001.15
2017,04,06,13,54,1001.22
2017,04,06,13,55,1001.19
2017,04,06,13,56,1001.25
2017,04,06,13,57,1001.25
2017,04,06,13,58,1001.29
2017,04,06,13,59,1001.29
2017,04,06,14,00,1001.39
2017,04,06,14,01,1001.39
2017,04,06,14,02,1001.42
2017,04,06,14,03,1001.46
2017,04,06,14,04,1001.46
2017,04,06,14,05,1001.39
2017,04,06,14,06,1001.46
2017,04,06,14,07,1001.49
2017,04,06,14,08,1001.52
2017,04,06,14,09,1001.52
2017,04,06,14,10,1001.52
2017,04,06,14,11,1001.52
2017,04,06,14,12,1001.59
2017,04,06,14,13,1001.59
2017,04,06,14,14,1001.52
2017,04,06,14,15,1001.59
2017,04,06,14,16,1001.63
2017,04,06,14,17,1001.63
2017,04,06,14,18,1001.59
2017,04,06,14,19,1001.59
2017,04,06,14,20,1001.59
2017,04,06,14,21,1001.69
2017,04,06,14,22,1001.66
2017,04,06,14,23,1001.76
2017,04,06,14,24,1001.73
2017,04,06,14,25,1001.76
2017,04,06,14,26,1001.76
2017,04,06,14,27,1001.83
2017,04,06,14,28,1001.83
2017,04,06,14,29,1001.86
2017,04,06,14,30,1001.97
2017,04,06,14,31,1001.97
2017,04,06,14,32,1002.03
2017,04,06,14,33,1002.03
2017,04,06,14,34,1002.10
2017,04,06,14,35,1002.10
2017,04,06,14,36,1002.24
2017,04,06,14,37,1002.24
2017,04,06,14,38,1002.24
2017,04,06,14,39,1002.30
2017,04,06,14,40,1002.37
2017,04,06,14,41,1002.41
2017,04,06,14,42,1002.41
2017,04,06,14,43,1002.47
2017,04,06,14,44,1002.51
2017,04,06,14,45,1002.51
2017,04,06,14,46,1002.57
2017,04,06,14,47,1002.57
2017,04,06,14,48,1002.64
2017,04,06,14,49,1002.68
2017,04,06,14,50,1002.71
2017,04,06,14,51,1002.81
2017,04,06,14,52,1002.78
2017,04,06,14,53,1002.81
2017,04,06,14,54,1002.88
2017,04,06,14,55,1002.91
2017,04,06,14,56,1002.85
2017,04,06,14,57,1002.91
2017,04,06,14,58,1002.85
2017,04,06,14,59,1002.85
2017,04,06,15,00,1003.01
2017,04,06,15,01,1002.98
2017,04,06,15,02,1003.05
2017,04,06,15,03,1003.05
2017,04,06,15,04,1003.18
2017,04,06,15,05,1003.15
2017,04,06,15,06,1003.22
2017,04,06,15,07,1003.22
2017,04,06,15,08,1003.25
2017,04,06,15,09,1003.22
2017,04,06,15,10,1003.25
2017,04,06,15,11,1003.18
2017,04,06,15,12,1003.22
2017,04,06,15,13,1003.22
2017,04,06,15,14,1003.25
2017,04,06,15,15,1003.29
2017,04,06,15,16,1003.32
2017,04,06,15,17,1003.29
2017,04,06,15,18,1003.32
2017,04,06,15,19,1003.29
2017,04,06,15,20,1003.35
2017,04,06,15,21,1003.29
2017,04,06,15,22,1003.39
2017,04,06,15,23,1003.35
2017,04,06,15,24,1003.39
2017,04,06,15,25,1003.29
2017,04,06,15,26,1003.29
2017,04,06,15,27,1003.35
2017,04,06,15,28,1003.39
2017,04,06,15,29,1003.35
2017,04,06,15,30,1003.42
2017,04,06,15,31,1003.46
2017,04,06,15,32,1003.49
2017,04,06,15,33,1003.49
2017,04,06,15,34,1003.49
2017,04,06,15,35,1003.52
2017,04,06,15,36,1003.49
2017,04,06,15,37,1003.46
2017,04,06,15,38,1003.52
2017,04,06,15,39,1003.42
2017,04,06,15,40,1003.46
2017,04,06,15,41,1003.42
2017,04,06,15,42,1003.46
2017,04,06,15,43,1003.46
2017,04,06,15,44,1003.42
2017,04,06,15,45,1003.39
2017,04,06,15,46,1003.42
2017,04,06,15,47,1003.39
2017,04,06,15,48,1003.32
2017,04,06,15,49,1003.32
2017,04,06,15,50,1003.35
2017,04,06,15,51,1003.46
2017,04,06,15,52,1003.46
2017,04,06,15,53,1003.46
2017,04,06,15,54,1003.46
2017,04,06,15,55,1003.46
2017,04,06,15,56,1003.46
2017,04,06,15,57,1003.52
2017,04,06,15,58,1003.49
2017,04,06,15,59,1003.49